Regional Weather Roundup
Issued by NWS

Home | Current Version | Previous Version | Text Only | Print | Product List | Glossary On
Versions: 1 2 3 4 5 6 7 8 9 10 11 12 13 14 15 16 17 18 19 20 21 22 23 24 25 26 27 28 29 30 31 32 33 34 35 36 37 38 39 40 41 42 43 44 45 46 47 48 49 50
000
ASUS46 KSEW 221410
RWRWA

WASHINGTON REGIONAL WEATHER ROUNDUP
NATIONAL WEATHER SERVICE SEATTLE WA
600 AM PST WED NOV 22 2017

NOTE:"FAIR" INDICATES FEW OR NO CLOUDS BELOW 12,000 FEET WITH NO
SIGNIFICANT WEATHER AND/OR OBSTRUCTIONS TO VISIBILITY.

WAZ507-509-555>559-221500-
SEATTLE, TACOMA, EVERETT, AND VICINITY

CITY           SKY/WX    TMP DP  RH WIND       PRES   REMARKS
EVERETT        CLOUDY    58  57  97 SE10      29.97R
BOEING FIELD   CLOUDY    56  55  97 SE3       29.96S
RENTON         CLOUDY    55  55 100 CALM      29.96R
SEATAC AIRPORT CLOUDY    58  56  93 CALM      29.96S
JBLM-MCCHORD   CLOUDY    57  57 100 S7        29.96F
PUYALLUP       CLOUDY    64  57  77 S8        29.97S
BREMERTON      LGT RAIN  57  56  96 SW8       29.96R
JBLM-FT LEWIS  CLOUDY    60  60 100 SW5       29.95F
TACOMA NARROWS CLOUDY    58  57  97 SW5       29.97S
$$

WAZ001-503-506-510-514-515-221500-
NORTH INTERIOR

CITY           SKY/WX    TMP DP  RH WIND       PRES   REMARKS
BELLINGHAM     CLOUDY    61  57  87 SE20G25   29.91S
FRIDAY HARBOR  CLOUDY    52  52 100 CALM      29.91S FOG
EASTSOUND      CLOUDY    57  55  94 S10       29.90S
PORT ANGELES   FOG       48  48 100 CALM      29.90S VSB 3/4
EDIZ HOOK      CLOUDY    49  48  98 SW3       29.90S
PORT TOWNSEND  CLOUDY    59  57  94 S7G18     29.91S
NAS WHIDBEY    CLOUDY    61  55  81 S15       29.95R
ARLINGTON      CLOUDY    60  57  89 SE10      29.95F
BURLINGTON     CLOUDY    61  57  88 SE10G17   29.93R
$$

WAZ020-022-039-040-504-511-512-221500-
SOUTHWEST INTERIOR

CITY           SKY/WX    TMP DP  RH WIND       PRES   REMARKS
SHELTON        LGT RAIN  57  56  96 CALM      29.93F FOG
OLYMPIA        CLOUDY    60  57  89 S12       29.96F
CHEHALIS       CLOUDY    59  59 100 S10       29.98S FOG
KELSO          CLOUDY    54  52  93 SE9       30.00F
VANCOUVER      CLOUDY    51  51 100 E6        30.03F
SCAPPOOSE, OR  LGT RAIN  50  50 100 E3        30.02F FOG
PORTLAND, OR   CLOUDY    50  49  96 SE9       30.04S
$$

WAZ021-516-517-221500-
WASHINGTON COAST

CITY           SKY/WX    TMP DP  RH WIND       PRES   REMARKS
FORKS          CLOUDY    56  55  97 S17G26    29.88S
HOQUIAM        LGT RAIN  56  56 100 S15       29.95S FOG
ASTORIA, OR    LGT RAIN  61  58  90 S15G25    29.96S
$$

WAZ019-023-024-040-567>569-221500-
CASCADE MOUNTAINS AND COLUMBIA GORGE

CITY           SKY/WX    TMP DP  RH WIND       PRES   REMARKS
STAMPEDE PASS  CLOUDY    44  31  60 NE3       30.04S
TROUTDALE, OR  CLOUDY    51  47  86 E16G24    30.03F
HOOD RIVER, OR CLOUDY    43  43 100 CALM      30.10F FOG
THE DALLES, OR FOG       45  44  97 CALM      30.11S VSB 1
$$

WAZ026-027-041>044-520-521-221500-
EAST SLOPES

CITY           SKY/WX    TMP DP  RH WIND       PRES   REMARKS
OMAK           CLOUDY    39  39 100 CALM      30.10R
WENATCHEE      CLOUDY    35  34  96 CALM      30.09S
ELLENSBURG     CLOUDY    37  35  92 CALM      30.08R FOG
YAKIMA         CLOUDY    39  37  92 CALM      30.09F FOG
SUNNYSIDE ARPT LGT RAIN  40  40  99 CALM      30.09F
YAKIMA TC      PTSUNNY   38  37  94 S3        30.06F
$$

WAZ028-034-035-221500-
COLUMBIA BASIN

CITY           SKY/WX    TMP DP  RH WIND       PRES   REMARKS
EPHRATA        CLOUDY    39  35  86 CALM      30.09S FOG
MOSES LAKE     FOG       39  39 100 N3        30.10S VSB 3/4
PASCO          LGT RAIN  44  43  96 NW3       30.13R FOG
RICHLAND ARPT  MIX PCPN  44  43  96 W3        30.12S
HERMISTON, OR  CLOUDY    44  43  96 CALM      30.09S
$$

WAZ036>038-221500-
NORTHEAST WASHINGTON

CITY           SKY/WX    TMP DP  RH WIND       PRES   REMARKS
SPOKANE GEIGER CLOUDY    46  45  96 CALM      30.09R
SPOKANE FELTS  CLOUDY    44  43  96 CALM      30.09S
FAIRCHILD AFB  CLOUDY    45  45 100 CALM      30.08S
COEURDALENE,ID CLOUDY    48  48 100 CALM      30.10R
DEER PARK      CLOUDY    44  44 100 NW3       30.11R
$$

WAZ029>033-221500-
SOUTHEAST WASHINGTON

CITY           SKY/WX    TMP DP  RH WIND       PRES   REMARKS
PULLMAN        CLOUDY    51  48  89 SE10      30.14S
LEWISTON, ID   CLOUDY    50  49  96 NE6       30.13S
WALLA WALLA    LGT RAIN  61  54  77 SE10      30.08F
PENDLETON, OR  CLOUDY    53  51  93 NE7       30.08S
$$



USA.gov is the U.S. government's official web portal to all federal, state and local government web resources and services.